SCP
2 2 1 1 2 3 3 2 2 2 3 3 3 3 4 4 4 4 3 3 3 2 2 2 2 2 2 2 2 2 1 1 1 1 1 1 1 1 1 1 1 1 1
2 2 1 1 2 2 2 2 2 2 3 3 3 3 3 3 4 4 4 4 3 2 2 2 2 2 2 2 2 2 1 1 1 1 1 1 1 1 1 1 1 1 1
2 2 2 2 2 2 2 2 2 2 2 2 2 2 2 2 3 4 5 5 4 3 3 3 3 3 3 3 2 2 2 2 2 2 1 1 1 1 1 1 1 1 1
3 2 2 2 2 2 3 3 4 3 3 2 2 2 2 2 2 3 4 4 4 4 4 4 4 4 3 3 3 2 2 2 2 2 2 1 1 1 1 1 1 1 1
3 3 3 3 3 4 5 6 6 6 5 3 3 2 2 2 2 3 3 3 3 4 5 5 5 5 4 3 3 3 3 2 2 2 2 2 2 1 1 1 1 1 1
3 3 3 4 4 5 6 8 9 9 7 5 3 3 3 3 3 4 4 3 3 4 5 6 7 7 5 4 4 3 3 2 2 2 2 2 2 2 2 1 1 1 1
3 3 4 4 4 5 6 8 11 12 9 5 4 4 4 4 4 4 4 3 4 5 6 7 7 7 6 5 5 4 4 3 2 2 3 3 3 2 2 1 1 1 1
3 4 4 4 4 5 6 7 11 11 9 6 5 5 5 5 5 5 4 4 5 6 7 7 6 5 5 5 6 6 5 4 3 3 3 4 4 3 2 2 1 1 1
4 5 5 6 6 6 6 8 11 11 8 6 5 6 6 6 6 5 4 5 6 6 6 5 4 3 4 5 5 5 4 4 4 4 4 4 4 3 2 2 2 1 1
6 7 7 8 7 7 7 9 11 10 8 6 6 6 6 6 6 5 4 5 6 5 5 4 3 3 3 4 4 4 3 3 3 3 3 3 3 2 2 2 2 2 2
8 8 8 7 7 7 6 7 8 8 7 7 7 6 5 5 5 4 4 5 5 5 4 3 3 3 3 3 3 3 3 3 3 2 2 2 2 1 1 2 2 3 2
6 6 6 6 6 5 5 5 5 6 7 8 8 6 6 6 5 5 5 5 5 4 4 4 4 4 3 3 4 4 3 3 3 2 2 2 1 2 2 2 3 3 2
5 6 6 6 6 6 5 5 5 6 7 8 8 7 6 7 7 6 6 6 5 4 4 4 4 4 3 3 4 5 4 4 4 3 2 2 2 2 2 3 3 3 3
6 7 9 9 8 7 7 6 6 6 7 8 8 8 8 8 7 7 7 6 5 4 4 4 4 3 3 4 4 5 5 5 5 4 4 3 2 2 2 2 3 3 3
7 8 11 11 10 9 10 10 9 8 8 9 9 9 9 8 7 6 6 6 6 4 4 4 3 3 3 3 4 5 5 5 5 5 5 4 3 2 2 2 2 3 3
7 8 10 12 12 11 12 13 13 12 11 11 10 10 9 8 7 6 6 7 6 5 4 4 4 4 3 3 3 3 4 4 5 5 5 5 3 3 2 2 2 2 2
9 10 11 13 13 12 11 12 13 13 13 12 11 9 8 8 8 7 7 7 7 6 5 5 5 4 4 3 2 2 3 3 4 5 5 5 4 3 3 2 2 1 1
12 14 15 15 14 11 9 9 11 12 12 11 10 9 8 8 9 9 8 8 7 6 5 5 5 5 4 3 2 2 2 3 3 4 5 6 6 5 3 3 2 2 1
13 15 16 15 13 11 9 9 11 12 11 10 10 10 10 9 9 10 9 9 8 6 5 5 6 6 5 4 2 2 2 3 4 5 6 7 7 5 3 2 2 2 2
14 14 14 12 11 11 11 10 11 11 11 10 11 12 12 11 10 10 10 10 9 7 5 5 7 7 5 3 2 2 3 3 4 5 5 5 5 4 2 2 2 2 1
15 13 11 11 11 12 12 11 10 10 10 9 10 11 12 11 11 11 11 10 9 8 7 7 7 6 5 3 2 1 2 3 4 4 4 3 3 2 1 1 1 1 1
11 10 10 11 12 13 12 11 9 9 10 10 11 11 12 12 11 12 12 11 10 9 9 8 7 6 5 4 2 1 1 2 3 3 3 2 1 1 0 0 0 1 0
8 9 9 11 13 14 13 11 9 10 11 12 12 13 13 13 13 13 13 13 12 11 10 9 7 6 6 5 4 2 1 1 1 2 2 1 1 0 0 0 0 0 0
8 8 8 10 13 15 14 12 10 12 14 14 13 13 13 14 13 13 13 13 12 11 9 9 8 7 6 5 4 3 2 1 1 1 1 1 1 0 1 1 0 0 1
8 8 8 10 12 14 14 12 11 13 16 16 15 14 13 13 13 12 10 9 9 7 7 7 7 6 5 4 3 4 4 3 2 2 2 1 1 1 1 1 1 1 1
9 9 9 10 12 13 13 12 11 13 16 18 17 15 13 13 13 11 8 5 4 4 4 5 5 4 3 2 3 4 5 4 3 2 2 2 2 2 2 2 2 1 1
Wind_Speed
11 10 9 9 9 8 6 5 4 3 2 1 1 1 0 1 1 2 3 3 1 1 1 0 1 0 0 0 0 0 1 0 0 1 1 0 1 2 2 1 1 1 2
12 11 9 8 8 8 6 5 4 4 3 2 1 1 0 0 1 1 2 2 1 0 1 1 0 1 1 0 0 0 0 1 1 1 1 0 0 0 2 2 1 1 1
13 12 10 9 9 9 7 6 5 5 4 3 2 2 1 0 1 2 2 2 1 1 1 1 0 0 0 1 0 0 1 1 1 1 1 1 1 0 0 1 1 2 1
13 12 11 9 9 9 8 6 6 5 4 3 2 3 2 1 1 1 2 2 1 1 2 1 1 1 0 0 1 1 1 1 1 1 1 2 2 1 0 0 1 1 2
14 13 12 10 9 9 9 8 7 6 4 3 2 2 1 1 1 1 2 1 1 2 2 2 1 1 0 0 1 1 1 1 2 1 1 1 1 2 2 1 1 0 1
14 13 12 10 9 9 8 9 8 6 5 4 3 2 1 1 0 1 1 1 1 1 2 2 2 1 1 1 1 1 1 1 2 2 2 1 1 1 1 2 2 1 1
14 13 13 11 9 9 8 8 9 7 6 5 4 3 2 1 1 1 1 1 1 1 1 2 1 1 1 1 1 1 1 1 1 2 2 1 1 1 1 1 1 1 1
14 14 13 12 11 10 9 9 9 8 7 6 4 3 3 2 1 1 0 0 0 1 2 2 2 1 0 1 1 0 1 0 1 2 1 1 1 1 0 1 1 1 1
14 13 13 12 11 10 10 9 10 8 7 6 5 4 3 2 1 2 1 0 1 1 2 2 1 1 1 0 1 0 1 1 1 1 1 1 2 1 1 1 2 2 2
13 14 13 13 11 9 9 9 9 8 7 6 5 5 4 3 2 1 1 1 1 1 2 1 1 1 1 1 1 1 1 1 1 1 2 2 2 2 1 1 1 1 2
11 11 11 11 11 10 10 9 9 9 7 6 5 4 4 4 2 1 1 1 1 1 1 1 1 1 1 1 1 0 0 1 1 2 1 1 2 2 2 1 0 0 1
8 10 11 11 10 9 9 9 9 8 7 6 5 4 4 3 3 2 1 1 1 1 1 1 1 1 1 1 1 0 1 1 1 1 2 2 2 2 2 2 1 0 1
8 9 9 10 9 8 7 8 8 8 8 7 6 5 4 4 3 3 2 2 2 1 1 1 1 0 1 1 1 0 1 1 1 1 2 2 2 2 2 2 2 1 0
8 9 8 8 7 7 7 7 7 8 8 7 6 5 4 4 3 2 3 2 2 2 1 1 1 1 1 1 1 1 1 1 2 2 2 3 3 3 2 2 2 1 1
9 9 8 7 7 7 6 6 6 6 6 6 5 5 4 4 3 2 3 3 2 2 2 2 2 2 1 2 1 1 1 1 2 2 3 5 6 7 5 3 3 3 2
9 9 9 8 7 7 7 6 6 6 6 6 5 5 5 5 4 3 3 3 3 3 3 3 2 2 2 5 5 3 1 2 2 2 2 3 4 5 7 8 7 6 4
8 9 8 8 7 7 6 7 7 6 6 6 5 5 5 5 4 4 3 3 3 3 3 3 2 3 5 6 6 4 2 2 2 2 2 2 4 4 3 4 5 6 6
8 8 8 7 7 7 6 6 7 7 7 6 5 5 5 5 4 4 4 4 3 3 3 3 3 3 4 6 5 4 2 2 2 3 3 3 3 4 3 3 4 4 4
8 7 8 8 7 7 6 7 7 7 6 6 5 5 5 5 4 4 3 3 3 3 3 3 3 3 3 4 4 2 1 2 3 3 4 3 3 6 5 3 3 3 3
8 8 8 8 7 6 6 7 7 6 6 5 5 5 5 5 4 4 4 3 3 3 3 4 3 3 3 4 4 3 1 2 2 2 3 6 5 6 5 3 3 2 2
9 8 8 7 7 7 6 6 6 6 5 5 5 5 5 5 5 4 4 3 3 3 3 4 3 3 3 4 5 4 2 2 2 2 3 4 6 5 5 4 2 2 2
9 8 7 7 6 6 6 6 6 5 5 6 5 5 5 4 5 4 3 3 3 3 3 3 3 2 2 4 4 5 4 3 3 3 3 3 4 4 4 3 3 4 3
8 7 8 7 6 6 6 6 5 5 5 6 5 5 5 4 4 4 3 3 2 2 2 3 2 2 2 3 5 5 5 5 3 3 4 3 2 2 2 2 3 2 2
6 7 7 7 6 5 6 6 5 5 5 5 5 5 5 4 4 2 2 2 1 1 1 2 2 3 3 3 2 2 2 3 2 1 2 1 1 1 1 1 1 1 1
5 5 5 6 6 5 5 5 5 5 5 5 4 5 5 5 4 4 4 3 4 2 1 1 2 2 2 2 2 2 2 2 2 1 1 1 1 1 1 1 1 1 2
5 6 6 5 6 5 5 5 4 4 4 4 3 3 4 4 5 6 6 10 7 8 8 7 4 4 5 5 5 5 5 4 2 2 1 1 1 1 1 1 1 2 2
Wind_Direction
160 157 157 151 144 141 140 142 143 136 136 157 142 142 134 128 109 116 112 105 95 79 83 70 83 101 104 95 96 242 255 242 189 96 51 350 170 154 163 152 137 147 128
162 160 160 159 151 146 146 146 150 150 159 153 150 170 166 108 128 98 107 118 123 152 177 129 213 101 124 65 297 51 314 268 167 138 144 335 344 269 146 138 134 119 112
168 166 168 169 163 159 160 165 160 156 172 168 173 166 143 26 81 114 125 130 136 150 52 77 315 312 210 169 218 219 212 264 285 170 151 183 192 230 47 96 110 114 101
168 168 172 172 170 165 164 156 152 153 163 175 190 180 167 163 148 139 139 147 172 168 148 183 208 248 293 92 239 173 234 244 281 267 190 193 168 170 138 5 67 109 108
171 171 174 172 174 170 164 157 150 154 160 173 188 190 175 178 151 131 116 152 172 179 178 171 192 198 240 256 294 35 275 258 261 275 251 216 206 191 177 196 184 86 82
171 170 170 166 173 170 165 160 154 158 163 172 179 174 204 210 134 127 144 203 186 197 191 164 174 176 203 210 204 256 255 270 293 313 311 286 220 188 197 202 198 180 163
171 169 167 167 171 170 167 158 154 162 168 174 180 170 189 190 183 222 210 222 177 172 186 155 162 176 201 188 188 203 257 259 276 275 292 307 286 239 180 182 194 181 179
172 171 169 169 173 172 166 160 155 162 168 175 178 172 171 192 193 192 231 212 82 118 139 122 122 132 181 164 150 229 245 270 291 298 312 297 307 301 267 203 178 183 188
169 169 168 170 176 174 169 168 159 159 167 172 168 166 170 184 170 154 200 183 66 108 98 111 119 125 130 76 101 38 341 31 3 336 318 316 311 299 270 224 183 182 192
167 167 168 167 172 171 165 160 152 154 164 168 173 169 169 172 157 148 150 118 79 58 89 116 108 100 86 81 83 61 56 52 25 350 350 336 324 327 314 291 215 198 179
165 163 163 163 165 166 166 159 154 156 164 166 162 152 156 161 160 161 131 125 89 88 120 103 94 86 70 86 104 86 77 74 343 316 335 340 334 330 328 319 252 206 138
155 152 153 153 162 164 159 154 153 155 157 155 152 155 148 150 152 150 138 143 154 165 128 104 85 82 81 81 77 355 42 44 329 333 355 351 340 341 330 328 328 11 140
147 142 144 148 155 153 149 151 152 153 154 160 162 159 155 153 153 157 147 132 120 115 103 100 96 61 61 77 78 33 22 13 27 29 15 357 360 2 357 356 2 0 288
134 130 129 134 140 141 145 148 152 155 157 159 161 156 152 147 145 135 126 123 114 104 94 78 62 57 52 34 29 45 51 45 43 50 49 30 24 14 7 9 9 6 1
135 135 135 135 139 141 141 142 144 143 147 144 144 142 140 131 121 117 116 112 106 107 82 64 49 43 54 20 26 47 89 73 61 57 63 65 66 56 47 40 29 22 24
143 142 139 139 139 139 140 137 134 136 136 139 140 136 135 128 123 129 121 110 103 92 82 77 62 50 36 40 43 55 31 66 71 57 59 94 84 82 77 67 57 52 50
142 140 143 140 139 140 138 140 136 133 129 130 132 133 138 140 139 142 121 112 110 105 92 80 69 62 46 36 42 44 24 50 52 47 38 33 46 66 78 86 74 62 60
136 132 134 134 133 132 129 129 130 129 129 131 135 133 133 132 125 125 120 116 113 107 99 88 77 73 56 41 41 43 56 54 47 39 41 49 39 28 42 69 75 68 54
125 125 127 126 121 123 126 127 129 131 134 137 135 132 133 131 132 131 126 121 120 113 105 92 79 75 56 39 40 52 100 85 69 54 42 46 50 45 52 65 65 60 56
115 116 117 118 121 119 117 123 126 127 129 130 125 122 123 127 127 117 110 110 113 117 115 100 86 85 70 44 39 22 95 88 73 77 69 54 55 59 55 63 67 52 29
107 110 115 117 118 118 116 119 117 116 117 116 115 114 112 116 114 111 116 123 127 128 118 107 97 88 75 65 54 45 44 49 56 61 69 61 59 62 57 53 53 32 5
120 121 118 116 114 117 119 118 114 112 111 113 115 114 112 120 123 120 121 126 131 137 130 123 120 104 85 68 71 65 56 50 61 56 68 77 64 60 57 55 40 28 25
126 128 125 121 119 117 118 119 116 119 118 115 113 112 110 107 111 122 133 145 149 155 148 144 136 119 105 88 85 90 78 68 71 64 69 65 49 58 72 59 43 39 40
131 130 128 126 124 121 115 118 120 123 123 123 123 121 119 117 99 96 104 102 96 112 112 123 122 113 92 81 81 108 111 109 98 94 94 71 16 0 54 50 39 56 47
126 125 132 134 128 117 113 119 122 127 129 129 134 137 130 119 101 77 44 62 56 51 83 82 78 93 99 69 61 89 75 71 72 69 132 134 139 125 111 110 87 64 64
134 133 129 132 131 129 123 119 124 133 139 148 151 151 144 135 130 118 86 49 59 68 68 68 89 80 100 109 86 77 72 68 66 82 89 68 53 43 54 46 54 55 50